User: anonymous   Login
Location: Pella
(41.4080°N, 92.9160°W)
Time: 04:05:43
(UTC-06:00)
Language:

Iridium 91 - Orbit

View from above orbital plane
View from above orbital plane
View from above satellite
View from above satellite

Ground track
Ground track

The orbit data is extracted from the following two-line orbital elements,

1 27372U 02005A   17017.61972382  .00000021  00000-0  29421-6 0  9999
2 27372  86.3364 350.5500 0002506  93.2916  26.2454 14.34213184790048
Epoch (UTC): 17 January 2017 14:52:24
Eccentricity: 0.0002506
inclination: 86.3364°
perigee height: 776 km
apogee height: 779 km
right ascension of ascending node: 350.5500°
argument of perigee: 93.2916°
revolutions per day: 14.34213184
mean anomaly at epoch: 26.2454°
orbit number at epoch: 79004

The dashed part of the orbit path shows where the satellite is in the earth's shadow,  

DLR